Weather History for Key West, FL

Change the Weather History Date:

Sunday, February 3, 2013

  Actual Average Record
Temperature  
Mean Temperature 68 °F 70 °F  
Max Temperature 70 °F 75 °F 85 °F (1957)
Min Temperature 66 °F 65 °F 44 °F (1917)
Degree Days  
Heating Degree Days 0 1  
Month to date heating degree days 0 3  
Since 1 July heating degree days 5 54  
Cooling Degree Days 3 6  
Month to date cooling degree days 10 18  
Year to date cooling degree days 301 183  
Growing Degree Days 18 (Base 50)    
Moisture  
Dew Point 55 °F    
Average Humidity 65    
Maximum Humidity 76    
Minimum Humidity 53    
Precipitation  
Precipitation 0.00 in 0.06 in 1.01 in (1970)
Month to date precipitation 0.00 0.17  
Year to date precipitation 0.29 2.21  
Snow  
Snow 0.00 in - - ()
Month to date snowfall 0.0  
Since 1 July snowfall 0.0  
Snow Depth 0.00 in    
Sea Level Pressure  
Sea Level Pressure 30.13 in    
Wind  
Wind Speed 10 mph (North)    
Max Wind Speed 17 mph    
Max Gust Speed 26 mph    
Visibility 10 miles    
Events      
T = Trace of Precipitation, MM = Missing Value Source: NWS Daily Summary

Daily Weather History Graph

Daily Weather History Graph

Search for Another Location

Airport:

Trip Planner

Search our weather history database for the weather conditions in past years. The results will help you decide how hot, cold, wet, or windy it might be!

Date:

Astronomy

Feb. 03, 2013 Rise Set
Actual Time 7:07 AM EST 6:14 PM EST
Civil Twilight 6:44 AM EST 6:37 PM EST
Nautical Twilight 6:17 AM EST 7:05 PM EST
Astronomical Twilight 5:50 AM EST 7:31 PM EST
Moon 12:32 AM EST (2/3) 11:54 AM EST (2/3)
Length of Visible Light 11h 53m
Length of Day
11h 06m
Waning Gibbous, 49% of the Moon is Illuminated
Feb 3
Waning Gibbous
Feb 10
New
Feb 17
First Quarter
Feb 25
Full
Mar 4
Last Quarter

Hourly Weather History & Observations

Time (EST) Temp. Dew Point Humidity Pressure Visibility Wind Dir Wind Speed Gust Speed Precip Events Conditions
12:53 AM 68.0 °F 60.1 °F 76% 30.12 in 10.0 mi NNE 4.6 mph - N/A   Partly Cloudy
1:53 AM 68.0 °F 59.0 °F 73% 30.10 in 10.0 mi NNE 6.9 mph - N/A   Scattered Clouds
2:53 AM 68.0 °F 60.1 °F 76% 30.09 in 10.0 mi North 4.6 mph - N/A   Mostly Cloudy
3:53 AM 68.0 °F 59.0 °F 73% 30.09 in 10.0 mi North 8.1 mph - N/A   Overcast
4:53 AM 68.0 °F 61.0 °F 78% 30.10 in 10.0 mi North 9.2 mph - N/A   Mostly Cloudy
5:53 AM 66.9 °F 57.0 °F 70% 30.12 in 10.0 mi North 11.5 mph - N/A   Overcast
6:53 AM 66.0 °F 55.9 °F 70% 30.14 in 10.0 mi North 12.7 mph - N/A   Scattered Clouds
7:53 AM 66.0 °F 55.9 °F 70% 30.15 in 10.0 mi North 13.8 mph 21.9 mph N/A   Clear
8:53 AM 66.9 °F 55.9 °F 68% 30.18 in 10.0 mi North 13.8 mph 21.9 mph N/A   Clear
9:53 AM 68.0 °F 55.0 °F 63% 30.19 in 10.0 mi North 15.0 mph 26.5 mph N/A   Clear
10:53 AM 69.1 °F 55.0 °F 61% 30.18 in 10.0 mi North 13.8 mph 20.7 mph N/A   Clear
11:53 AM 70.0 °F 54.0 °F 57% 30.17 in 10.0 mi North 12.7 mph 20.7 mph N/A   Clear
12:53 PM 69.1 °F 52.0 °F 54% 30.14 in 10.0 mi North 13.8 mph 19.6 mph N/A   Clear
1:53 PM 70.0 °F 55.0 °F 59% 30.12 in 10.0 mi North 10.4 mph - N/A   Clear
2:53 PM 69.1 °F 55.0 °F 61% 30.10 in 10.0 mi North 11.5 mph - N/A   Clear
3:53 PM 69.1 °F 53.1 °F 57% 30.09 in 10.0 mi North 11.5 mph - N/A   Clear
4:53 PM 69.1 °F 52.0 °F 54% 30.10 in 10.0 mi North 9.2 mph - N/A   Clear
5:53 PM 66.9 °F 52.0 °F 59% 30.10 in 10.0 mi North 6.9 mph - N/A   Clear
6:53 PM 66.0 °F 53.1 °F 63% 30.10 in 10.0 mi North 5.8 mph - N/A   Clear
7:53 PM 66.0 °F 52.0 °F 60% 30.12 in 10.0 mi NNE 6.9 mph - N/A   Clear
8:53 PM 66.9 °F 50.0 °F 54% 30.13 in 10.0 mi North 8.1 mph - N/A   Clear
9:53 PM 66.9 °F 52.0 °F 59% 30.12 in 10.0 mi NNE 10.4 mph - N/A   Clear
10:53 PM 66.0 °F 53.1 °F 63% 30.13 in 10.0 mi NNE 6.9 mph - N/A   Clear
11:53 PM 66.0 °F 53.1 °F 63% 30.12 in 10.0 mi NNE 6.9 mph - N/A   Clear